www.pogodaiklimat.ru

Погода и климат >> Архив погоды >> Финляндия >> Муонио Саммалтунтури


ПОГОДА в Муонио Саммалтунтури

  • Прогноз погоды в Муонио Саммалтунтури
  • Монитор погоды в Муонио Саммалтунтури

АРХИВ ПОГОДЫ в Муонио Саммалтунтури

Время (UTC), дата Ветер
(напр.,м/с)
 
Видим.   Явления Облачность Т
(С)
Тd
(С)
f
(%)
Тe
(С)
Тes
(С)
Комфортность P
(гПа)
Po
(гПа)
Тmin
(С)
Tmax
(С)
R
(мм)
R24
(мм)
S
(см)
01 12.08 Ю 6 100 м слаб. дождь н/о +11.4 1007.5 942.3
02 12.08 Ю 6 100 м слаб. ливневой дождь н/о +11.3 1007.2 942.0
03 12.08 Ю 6-9
{11}
<100 м сильн. морось {ливн. осадки, дождь} н/о +11.1 +9 +9 1007.0 941.8
04 12.08 Ю 7-9
{10}
<100 м слаб. дождь н/о +11.0 +9 +9 1006.9 941.7
05 12.08 Ю 6-9
{11}
100 м сильн. дождь н/о +10.7 +8 +8 1006.9 941.7
06 12.08 Ю 6-8
{11}
<100 м слаб. дождь н/о +10.7 +9 +9 1006.7 941.4 +10.5 +14.8
07 12.08 Ю 6 <100 м слаб. морось н/о +10.7 1006.7 941.5
08 12.08 Ю 4 100 м туман н/о +11.0 1006.7 941.5
09 12.08 ЮВ 4-6
{9}
2800 м в посл. час туман {дождь} н/о +11.6 +10 +10 1006.4 941.3
10 12.08 ЮВ 6-10
{10}
22 км н/о +11.5 +9 +9 1006.4 941.3
11 12.08 ЮВ 6-9
{9}
9000 м в посл. час туман н/о +11.0 +9 +9 1006.5 941.3
12 12.08 ЮВ 5-7
{8}
400 м туман {дождь} н/о +10.7 +9 +9 1006.4 941.1
13 12.08 ЮВ 5 1500 м слаб. ливневой дождь н/о +10.4 1006.4 941.1
14 12.08 ЮВ 4 200 м слаб. ливневой дождь н/о +10.4 1006.3 941.0
15 12.08 ЮВ 5-6
{6}
100 м туман {ливн. осадки, дождь} н/о +10.5 +9 +9 1006.0 940.7
16 12.08 ЮВ 5 100 м морось н/о +10.4 1005.9 940.6
17 12.08 ЮВ 5-7
{8}
100 м слаб. дождь н/о +10.2 +8 +8 1005.8 940.5
18 12.08 ЮВ 4-5
{7}
100 м слаб. морось {дождь} н/о +10.2 +9 +9 1005.7 940.4 +10.2 +11.6
19 12.08 ЮВ 3-4
{5}
<100 м слаб. дождь н/о +10.2 +9 +9 1005.7 940.4
20 12.08 ЮВ 4-4
{5}
<100 м слаб. дождь н/о +10.3 +9 +9 1005.5 940.2
21 12.08 ЮВ 3-4
{4}
<100 м сильн. дождь {морось} н/о +10.3 +9 +9 1005.5 940.2
22 12.08 ЮВ 4 <100 м дождь н/о +10.3 1005.5 940.2
23 12.08 ЮВ 4 <100 м дождь н/о +10.3 1005.3 940.0
00 13.08 ЮВ 3-3
{4}
<100 м сильн. морось {дождь} н/о +10.4 +9 +9 1005.2 940.0
01 13.08 ЮВ 3-3
{3}
<100 м сильн. морось н/о +10.4 +9 +9 1005.2 940.0
02 13.08 В 2 100 м сильн. морось н/о +10.5 1005.0 939.8
03 13.08 В 2-3
{3}
100 м слаб. дождь {морось} н/о +10.5 +10 +10 1005.0 939.8
04 13.08 ЮВ 2 200 м морось н/о +10.5 1004.9 939.7
05 13.08 ЮВ 1-2
{2}
100 м морось н/о +10.8 +12 +12 1004.7 939.6
06 13.08 ЮВ 1-2
{2}
100 м слаб. дождь {морось} н/о +11.1 +12 +12 1004.6 939.6 +10.2 +11.2
07 13.08 Ю 1 <100 м туман н/о +11.4 1004.7 939.7
08 13.08 В 1-2
{2}
600 м туман н/о +11.9 +13 +13 1004.6 939.8
09 13.08 В 2-4
{4}
3100 м слаб. дождь {морось} н/о +12.4 +12 +12 1004.4 939.7
10 13.08 В 3 18 км слаб. ливневой дождь н/о +12.3 1004.5 939.7
11 13.08 В 3 35 км в посл. час морось н/о +13.1 1004.0 939.5
12 13.08 В 4-5
{5}
40 км {ливн. осадки, дождь} н/о +13.3 +12 +12 1003.9 939.4
13 13.08 В 1 30 км в посл. час морось н/о +13.4 1003.8 939.3
14 13.08 В 5 1200 м ливневой дождь н/о +11.9 1003.9 939.1
15 13.08 В 3-4
{4}
200 м слаб. дождь н/о +12.9 +12 +12 1003.4 938.9
16 13.08 В 6 200 м слаб. ливневой дождь н/о +12.3 1003.4 938.7
17 13.08 В 5 100 м слаб. дождь н/о +12.4 1003.5 938.8
18 13.08 В 5-6
{7}
100 м морось {ливн. осадки, дождь} н/о +12.2 +11 +11 1003.4 938.7 +11.1 +13.6
19 13.08 В 4 100 м слаб. дождь н/о +12.2 1003.2 938.5
20 13.08 В 4 100 м дождь н/о +12.1 1003.1 938.4
21 13.08 В 4-5
{5}
100 м слаб. дождь {морось} н/о +12.0 +11 +11 1003.2 938.4
22 13.08 СВ 3 100 м слаб. дождь н/о +11.3 1003.2 938.3
23 13.08 СВ 4 100 м слаб. дождь н/о +10.7 1003.1 938.0
00 14.08 СВ 3-4
{5}
200 м сильн. морось {дождь} н/о +10.3 +9 +9 1003.1 938.0
01 14.08 В 3 <100 м дождь н/о +9.9 1003.0 937.8
02 14.08 В 4-5
{6}
100 м сильн. морось н/о +9.7 +8 +8 1003.0 937.8
03 14.08 В 5-7
{7}
100 м дождь {морось} н/о +9.5 +7 +7 1002.9 937.6
04 14.08 В 5-7
{7}
100 м дождь н/о +9.4 +7 +7 1002.9 937.6
05 14.08 В 5 100 м дождь н/о +9.5 1002.8 937.6
06 14.08 В 4-6
{6}
100 м сильн. дождь {морось} н/о +9.9 +8 +8 1002.6 937.4 +9.3 +12.3
07 14.08 В 4-6
{6}
100 м сильн. дождь н/о +10.7 +9 +9 1002.4 937.4
08 14.08 В 5-6
{7}
100 м дождь н/о +10.6 +9 +9 1002.4 937.5
09 14.08 В 5-6
{7}
100 м сильн. морось {дождь} н/о +11.1 +9 +9 1002.4 937.5
10 14.08 СВ 4 100 м слаб. дождь н/о +11.6 1002.3 937.5
11 14.08 В 4 1100 м морось н/о +12.5 1002.0 937.4
12 14.08 СВ 3-4
{6}
30 км {дождь, морось} н/о +13.0 +12 +12 1001.9 937.5
13 14.08 СВ 5 35 км н/о +13.4 1001.6 937.3
14 14.08 СВ 6-7
{8}
30 км в посл. час дождь н/о +13.6 +11 +11 1001.4 937.2
15 14.08 В 5-7
{8}
30 км слаб. ливневой дождь н/о +13.3 +12 +12 1001.5 937.2
16 14.08 В 6 30 км слаб. ливневой дождь н/о +12.7 1001.6 937.1
17 14.08 В 6 28 км н/о +12.2 1001.8 937.2
18 14.08 В 8-9
{9}
30 км {ливн. осадки, дождь} н/о +12.3 +10 +10 1001.8 937.2 +9.9 +15.0
19 14.08 В 9 700 м туман н/о +11.6 1001.9 937.1
20 14.08 В 7 100 м туман н/о +11.3 1002.2 937.4
21 14.08 В 7-8
{9}
100 м туман н/о +10.4 +8 +8 1002.5 937.4
22 14.08 В 6 100 м туман н/о +9.9 1002.5 937.3
23 14.08 В 6-8
{8}
100 м туман н/о +9.9 +8 +8 1002.4 937.2
00 15.08 В 7-9
{9}
<100 м туман н/о +9.8 +7 +7 1002.3 937.1
01 15.08 В 7-9
{9}
<100 м туман н/о +9.8 +7 +7 1002.4 937.2
02 15.08 В 7-9
{9}
<100 м туман н/о +9.8 +7 +7 1002.2 937.1
03 15.08 В 8-9
{9}
<100 м туман н/о +9.6 +7 +7 1002.2 937.0
04 15.08 В 6-8
{8}
100 м дождь н/о +9.6 +7 +7 1002.2 937.0
05 15.08 В 6-7
{8}
100 м дождь н/о +9.6 +7 +7 1002.2 937.0
06 15.08 В 6-7
{7}
<100 м дождь {морось} н/о +9.8 +7 +7 1002.3 937.1 +9.5 +12.3
07 15.08 СВ 4 100 м морось н/о +9.8 1002.4 937.2
08 15.08 СВ 5-6
{7}
100 м морось н/о +10.0 +8 +8 1002.3 937.2
09 15.08 В 4-5
{6}
100 м морось {дождь} н/о +10.5 +9 +9 1002.3 937.3
10 15.08 СВ 4 17 км в посл. час морось н/о +10.8 1002.2 937.3
11 15.08 СВ 4-6
{7}
35 км н/о +12.2 +11 +11 1001.9 937.3
12 15.08 СВ 3-5
{6}
30 км {дождь, морось} н/о +13.1 +13 +13 1001.6 937.2
13 15.08 В 5 35 км н/о +14.1 1001.4 937.2
14 15.08 СВ 6-7
{8}
40 км слаб. ливневой дождь н/о +14.8 +14 +14 1001.3 937.3
15 15.08 В 3-5
{7}
30 км {ливн. осадки, дождь} н/о +14.7 +14 +14 1001.5 937.5
16 15.08 В 5 45 км н/о +13.1 1002.1 937.7
17 15.08 В 5-8
{8}
35 км н/о +12.3 +10 +10 1002.6 938.0
18 15.08 В 8-9
{9}
11 км {ливн. осадки, дождь} н/о +10.6 +8 +8 1003.5 938.4 +9.7 +15.4
19 15.08 В 8-9
{10}
7000 м дымка н/о +9.3 +6 +6 1004.1 938.7
20 15.08 В 8-10
{10}
1100 м дымка н/о +8.5 +5 +5 1004.6 939.0
21 15.08 В 7-9
{10}
400 м туман {дымка} н/о +8.0 +5 +5 1004.9 939.2
22 15.08 В 7 200 м туман н/о +7.9 1005.2 939.4
23 15.08 В 5 100 м туман н/о +7.8 1005.6 939.8
00 16.08 СВ 7-9
{9}
300 м туман {дымка} н/о +7.9 +5 +5 1006.0 940.1
01 16.08 В 7 400 м туман н/о +7.7 1006.1 940.2
02 16.08 В 5-6
{7}
400 м туман н/о +7.3 +5 +5 1006.6 940.6
03 16.08 В 5-6
{7}
2800 м в посл. час туман н/о +7.6 +5 +5 1007.0 941.0
04 16.08 В 3 7000 м дымка н/о +7.9 1007.2 941.3
05 16.08 В 3-4
{5}
6000 м дымка н/о +8.2 +7 +7 1007.4 941.5
06 16.08 ЮВ 3-4
{4}
12 км {туман, метель} н/о +9.0 +8 +8 1007.4 941.7 +7.3 +10.6
07 16.08 В 5-5
{6}
12 км н/о +9.3 +8 +8 1007.4 941.8
08 16.08 ЮВ 3 13 км н/о +9.8 1007.5 942.0
09 16.08 ЮВ 3-5
{5}
12 км н/о +10.3 +9 +9 1007.7 942.3
10 16.08 ЮВ 4-6
{6}
21 км в посл. час дождь н/о +11.2 +10 +10 1007.6 942.4
11 16.08 Ю 4 21 км морось н/о +11.7 1007.7 942.6
12 16.08 Ю 5-7
{8}
25 км в посл. час морось {ливн. осадки, дождь} н/о +12.2 +11 +11 1007.6 942.6
13 16.08 Ю 5 25 км н/о +12.3 1007.5 942.6
14 16.08 ЮВ 6 30 км н/о +12.4 1007.1 942.2
15 16.08 ЮВ 7-9
{9}
30 км {метель} н/о +12.5 +11 +11 1006.7 941.9
16 16.08 Ю 7 13 км слаб. дождь н/о +11.4 1007.3 942.2
17 16.08 ЮВ 8-10
{10}
11 км в посл. час дождь н/о +11.4 +9 +9 1007.0 941.9
18 16.08 Ю 8-10
{12}
2700 м дождь {морось} н/о +10.6 +8 +8 1007.4 942.0 +9.0 +13.1
19 16.08 ЮВ 6 500 м слаб. дождь н/о +10.1 1007.1 941.7
20 16.08 Ю 8-10
{11}
1100 м в посл. час туман н/о +10.3 +8 +8 1006.9 941.5
21 16.08 Ю 8-12
{12}
<100 м туман {дождь} н/о +10.7 +8 +8 1006.6 941.3
22 16.08 Ю 7 200 м слаб. дождь н/о +10.4 1006.6 941.3
23 16.08 Ю 7 100 м морось н/о +10.4 1006.5 941.2
00 17.08 Ю 7-10
{11}
<100 м морось {дождь} н/о +10.2 +8 +8 1006.2 940.8
01 17.08 Ю 7 <100 м морось н/о +10.1 1005.9 940.6
02 17.08 Ю 8-10
{11}
<100 м морось н/о +10.0 +7 +7 1006.1 940.7
03 17.08 ЮЗ 7-10
{11}
100 м морось {дождь} н/о +9.8 +7 +7 1006.1 940.7
04 17.08 ЮЗ 6 <100 м морось н/о +9.8 1006.4 940.9
05 17.08 ЮЗ 6 <100 м морось н/о +9.6 1006.7 941.2
06 17.08 ЮЗ 6-9
{9}
100 м морось {дождь} н/о +9.8 +7 +7 1006.9 941.4 +9.6 +10.8
07 17.08 ЮЗ 5-8
{8}
100 м морось н/о +9.8 +7 +7 1007.0 941.6
08 17.08 ЮЗ 5 600 м туман н/о +10.4 1007.2 941.8
09 17.08 ЮЗ 4-5
{6}
18 км в посл. час туман н/о +10.9 +10 +10 1007.1 941.9
10 17.08 ЮЗ 4 100 м слаб. ливневой дождь н/о +11.1 1007.3 942.1
11 17.08 Ю 4 35 км в посл. час туман н/о +12.3 1007.1 942.2
12 17.08 Ю 4-5
{8}
35 км {ливн. осадки, дождь} н/о +12.8 +12 +12 1007.2 942.3
13 17.08 Ю 5 28 км н/о +12.8 1007.1 942.2
14 17.08 Ю 7 800 м туман н/о +12.1 1006.9 941.9
15 17.08 Ю 6-9
{9}
17 км {ливн. осадки, дождь} н/о +12.4 +11 +11 1006.8 941.9
16 17.08 Ю 6 15 км н/о +12.8 1006.7 941.9
17 17.08 Ю 6-10
{10}
2000 м слаб. ливневой дождь н/о +12.5 +11 +11 1006.7 941.8
18 17.08 Ю 8-11
{11}
11 км дымка {ливн. осадки, дождь} н/о +12.4 +10 +10 1006.8 941.9 +9.6 +12.9
19 17.08 Ю 8 6000 м дымка н/о +12.1 1006.8 941.8
20 17.08 Ю 9 6000 м дымка н/о +11.9 1006.5 941.5
21 17.08 Ю 9-12
{13}
4300 м дымка {ливн. осадки, дождь} н/о +12.0 +9 +9 1006.2 941.3
22 17.08 Ю 8 5000 м дымка н/о +12.1 1006.1 941.2
23 17.08 Ю 9-13
{14}
3200 м в посл. час туман н/о +12.1 +9 +9 1006.1 941.1
00 18.08 Ю 10-14
{14}
2900 м слаб. дождь н/о +12.0 +9 +9 1005.6 940.7
01 18.08 Ю 9 20 км в посл. час дождь н/о +11.4 1005.6 940.6
02 18.08 Ю 10-16
{16}
30 км н/о +10.7 +7 +7 1005.5 940.3
03 18.08 Ю 10-13
{16}
25 км {ливн. осадки, метель} н/о +10.5 +7 +7 1005.5 940.3
04 18.08 Ю 10-16
{16}
22 км н/о +10.6 +7 +7 1005.5 940.2
05 18.08 Ю 10 17 км н/о +10.8 1005.5 940.3
06 18.08 Ю 10-14
{15}
25 км {ливн. осадки, метель} н/о +11.5 +9 +9 1005.6 940.6 +10.5 +12.4
07 18.08 Ю 10 2900 м сильн. морось н/о +11.1 1005.8 940.7
08 18.08 Ю 11-16
{17}
28 км н/о +11.8 +9 +9 1005.7 940.7
09 18.08 Ю 11-17
{17}
35 км {ливн. осадки, дождь} н/о +13.1 +10 +10 1005.7 941.0
10 18.08 Ю 10-15
{18}
40 км н/о +13.8 +11 +11 1005.8 941.3
11 18.08 Ю 11 40 км н/о +14.1 1006.0 941.5
12 18.08 Ю 9-14
{15}
40 км {ливн. осадки, дождь} н/о +14.2 +12 +12 1006.2 941.7
13 18.08 Ю 8-15
{15}
45 км н/о +13.8 +12 +12 1006.3 941.8
14 18.08 Ю 11-14
{17}
45 км н/о +13.0 +11 +11 1006.5 941.8
15 18.08 Ю 10-15
{15}
45 км в посл. час дождь {ливн. осадки} н/о +13.2 +11 +11 1006.3 941.6
16 18.08 Ю 12 45 км н/о +12.2 1006.6 941.7
17 18.08 Ю 10 35 км н/о +11.9 1006.7 941.7
18 18.08 Ю 9-13
{14}
100 м слаб. дождь н/о +11.5 +9 +9 1006.8 941.7 +11.0 +14.2
19 18.08 Ю 10-12
{15}
<100 м слаб. дождь н/о +11.6 +9 +9 1006.5 941.5
20 18.08 Ю 10 100 м слаб. дождь н/о +11.6 1006.5 941.4
21 18.08 Ю 9-13
{14}
200 м дождь {морось} н/о +11.5 +9 +9 1006.6 941.5
22 18.08 Ю 10 100 м слаб. дождь н/о +11.4 1006.5 941.4
23 18.08 Ю 9-13
{14}
<100 м слаб. дождь н/о +11.5 +9 +9 1006.6 941.5
00 19.08 Ю 8-12
{14}
100 м сильн. морось {дождь} н/о +11.7 +9 +9 1006.4 941.3

 

Местоположение метеостанции Муонио Саммалтунтури (Финляндия): широта 67.97 долгота 24.12 высота над уровнем моря 565 м.

В архиве по умолчанию представлена погода в Муонио Саммалтунтури за последнюю неделю. Архивные данные за месяц целиком и за предыдущие месяцы, начиная с января 2011 года, Вы можете получить, выбрав интересующий диапазон дат из раскрывающегося списка и нажав кнопку "Ввод!".


*Определитесь, кто Вы:
робот инопланетянин человек

Внимание! Время в таблицах - всемирное. Для получения местного времени необходимо прибавить поправку, которая равна 1 ч.

Смотрите также архив погоды в соседних городах и на ближайших метеорологических станциях:

Погода в Киттиля Ломполонвуома (Финляндия) (5 км)
Погода в Киттила Кенттарова (Финляндия) (5 км)
Погода в Киттила Маторова (Финляндия) (6 км)
Погода в Муонио Лаукукеро (Финляндия) (11 км)
Погода в Муонио Аламуонио (Финляндия) (18 км)
Погода в Киттила Левитунтури (Финляндия) (37 км)
Погода в Киттиля (Финляндия) (43 км)
Погода в Киттиля (Финляндия) (48 км)
Погода в Паркаломполо (Швеция) (60 км)
Погода в Киттила Покка (Финляндия) (72 км)

Пояснения к столбцам:

Ветер - указаны скорость ветра в м/с - средняя за 10 мин, порывы в срок и между сроками (в фигурных скобках) и направление, откуда дует ветер: С - северный, СВ - северо-восточный, В - восточный, ЮВ - юго-восточный, Ю - южный, ЮЗ - юго-западный, З - западный, СЗ - северо-западный.
Видимость - горизонтальная дальность видимости в метрах или километрах. При видимости от 1 до 10 км при отсутствии осадков обычно наблюдается дымка, при ухудшении видимости до 1 км и менее - туман. В сухую погоду видимость может ухудшаться дымом, пылью или мглою.
Явления - указаны атмосферные явления, наблюдавшиеся в срок или в последний час перед сроком; фигурными скобками обозначены явления, наблюдавшиеся между сроками (за 1-3 часа до срока); квадратными скобками обозначены град или гололедные отложения с указанием их диаметра в мм.
Облачность - указаны через наклонную черту общая и нижняя облачность в баллах и высота нижней границы облаков в метрах; квадратными скобками обозначены формы облаков: Ci - перистые, Cs - перисто-слоистые, Cc - перисто-кучевые, Ac - высококучевые, As - высокослоистые, Sc - слоисто-кучевые, Ns - слоисто-дождевые, Cu - кучевые, Cb - кучево-дождевые. Подробнее классификацию облаков см. в Атласе облаков (PDF).
T - Температура воздуха - температура, измеренная на высоте 2 м над землей.
Td - Температура точки росы - температура, при понижении до которой содержащийся в воздухе водяной пар достигнет насыщения.
f - Относительная влажность воздуха - влажноcть воздуха, измеренная на высоте 2 м над землей.
Te - Эффективная температура - температура, которую ощущает одетый по сезону человек в тени. Характеристика душности погоды. При расчете учитывается влияние влажности воздуха и скорости ветра на теплоощущения человека.
Tes - Эффективная температура на солнце - температура, которую ощущает человек, с поправкой на солнечный нагрев. Характеристика знойности погоды. Зависит от высоты солнца над горизонтом, облачности и скорости ветра. Ночью, в пасмурную погоду, а также при ветре 12 м/с и более поправка равна нулю.
P - Атмосферное давление - приведенное к уровню моря атмосферное давление.
Po - Атмосферное давление - измеренное на уровне метеостанции атмосферное давление.
Tmin - Минимальная температура - минимум температуры воздуха на высоте 2 м над землей.
Tmax - Максимальная температура - максимум температуры воздуха на высоте 2 м над землей.
R - Количество осадков - Количество выпавших осадков за период времени, мм. При наведении курсора мыши на число - период времени, за который выпало указанное количество осадков.
R24 - Количество осадков - Количество выпавших осадков за 24 часа, мм.
S - Снежный покров - Высота снежного покрова, см. При наведении курсора мыши на число - состояние снежного покрова и степень покрытия местности в баллах.